AirNav   Pilot Hours Calculator
 
 507 users online  

WN44 Podeweltz Airport
Merrill, Wisconsin, USA

GOING TO MERRILL?


FAA INFORMATION EFFECTIVE 26 JANUARY 2023

Location

FAA Identifier: WN44
Lat/Long: 45-14-21.8730N 089-34-08.4430W
45-14.364550N 089-34.140717W
45.2394092,-89.5690119
(estimated)
Elevation: 1470 ft. / 448 m (estimated)
Variation: 00E (1985)
From city: 6 miles NE of MERRILL, WI
Time zone: UTC -6 (UTC -5 during Daylight Saving Time)
Zip code: 54452

Airport Operations

Airport use: Private use. Permission required prior to landing
Activation date: 11/1988
Control tower: no
ARTCC: MINNEAPOLIS CENTER
FSS: GREEN BAY FLIGHT SERVICE STATION
Attendance: UNATNDD
Wind indicator: yes
Segmented circle: no

Airport Communications

WX AWOS-3 at RRL (7 nm W): 119.925 (715-539-8422)
WX AWOS-3 at TKV (17 nm NW): 118.250 (715-453-5716)
WX ASOS at AUW (19 nm S): 125.925 (715-843-7215)

Nearby radio navigation aids

VOR radial/distance  VOR name  Freq  Var
RHIr189/24.1RHINELANDER VOR/DME109.2002E

Airport Services

Parking: tiedowns
Airframe service: NONE
Powerplant service: NONE

Runway Information

Runway 18/36

Dimensions: 2200 x 80 ft. / 671 x 24 m
Surface: turf
Runway edge markings: 18/36 END MARKERS AND 16 INCH CONES 200' APART; LIGHTED ON REQUEST 715-536-6791.
RUNWAY 18  RUNWAY 36
Traffic pattern: leftleft
Markings: NSTDNSTD

Airport Ownership and Management from official FAA records

Ownership: Privately-owned
Owner: DANA PODEWELTZ
W2810 HWY C
MERRILL, WI 54452
Phone 715-536-6791
Manager: DANA PODEWELTZ
W2810 HWY C
MERRILL, WI 54452
Phone 715-536-6791

Airport Operational Statistics

Aircraft based on the field: 2
Single engine airplanes: 2
    
Aircraft operations: 200/year *
50% transient general aviation
50% local general aviation
* for 12-month period ending 22 July 2020

Additional Remarks

FOR CD CTC MINNEAPOLIS ARTCC AT 651-463-5588.

Instrument Procedures

There are no published instrument procedures at WN44.

Some nearby airports with instrument procedures:

KRRL - Merrill Municipal Airport (7 nm W)
KTKV - Tomahawk Regional Airport (17 nm NW)
KAUW - Wausau Downtown Airport (19 nm S)
KAIG - Langlade County Airport (20 nm E)
KRHI - Rhinelander/Oneida County Airport (24 nm N)
 
Loc | Ops | Rwys | IFR | FBO | Links
Com | Nav | Svcs | Stats | Notes
Area around WN44 (Podeweltz Airport)
 
Road maps at: MapQuest Bing Google
 
Aerial photo
No photo
 
Sectional chart

 
Airport distance calculator
Flying to Podeweltz Airport? Find the distance to fly.

From to WN44

Sunrise and sunset
Times for 27-Jan-2023
 Local
(UTC-6)
 Zulu
(UTC)
Morning civil twilight06:5312:53
Sunrise07:2513:25
Sunset16:5722:57
Evening civil twilight17:2923:29

Current date and time
Zulu (UTC)  27-Jan-2023 10:26:50
Local (UTC-6)  27-Jan-2023 04:26:50
 
METAR
KRRL 
7nm W 
271015Z AUTO 17004KT 1 3/4SM -SN OVC008 M12/M14 A2959 RMK AO2 T11221137 TSNO
KTKV 
17nm NW 
271015Z AUTO 00000KT 3SM OVC008 M12/M14 A2955 RMK AO2 T11251143 PWINO
KAUW 
18nm S 
270954Z AUTO 13010KT 7SM OVC006 M12/M14 A2961 RMK AO2 SNE14 SLP053 P0000 I1000 T11171139
TAF
KAUW 
18nm S 
270520Z 2706/2806 20006KT P6SM SCT012 BKN200 TEMPO 2707/2710 BKN012 FM271000 17010G20KT P6SM -SN SCT015 OVC035 WS020/21040KT TEMPO 2711/2712 3SM -SN OVC025 FM271200 19012G23KT 2SM -SN BKN013 OVC020 WS020/22040KT TEMPO 2712/2716 1SM -SN OVC010 FM271800 24012G22KT P6SM -SHSN OVC018 FM272000 28016G25KT P6SM BKN025 FM280200 29012G20KT P6SM BKN025
NOTAMs
Click for the latest NOTAMs
NOTAMs are issued by the DoD/FAA and will open in a separate window not controlled by AirNav.

 

 
 

Would you like to see your business listed on this page?

 If your business provides an interesting product or service to pilots, flight crews, aircraft, or users of the Podeweltz Airport, you should consider listing it here.  To start the listing process, click on the button below
 
Add a business
 

Other Pages about Podeweltz Airport

Update a link
 
Copyright © AirNav, LLC. All rights reserved. Privacy Policy  Contact